FALCON 9 DEB (56364 NORAD) Tracking and Keplerian Element Data

This shows tracking and keplerian element data for the satellite.

Feedback or suggestion? Click here.




ElementValue
Catalog56364
NameFALCON 9 DEB
Epoch Orbit178
Epoch Day125.82447586
Epoch Year2023
RAAN125.285
Inclination97.6704
Eccentricity0.0036721
Argument of Perigee212.7717
Mean Anonmoly147.1275
Mean Motion15.85351726
Decay Rate0.00207578
L11 56364U 23058AZ 23125.82447586 .00207578 17059-4 83335-3 0 9999
L22 56364 97.6704 125.2850 0036721 212.7717 147.1275 15.85351726 1784



Live tracking and technical data element details for FALCON 9 DEB (NORAD 56364). FALCON 9 DEB can be tracked NOW for your location showing map with azimuth and elevation plus other details from your city location.







IsCatalogInMostPopularTable: catalog: 56364, numindb: 4
Update: records affected: 1



GetName: 56364 FALCON 9 DEB

Hit Count: updated at: Wed, 07 Jun 2023 09:59:34 GMT